Regional Weather Roundup
Issued by NWS

Home | Current Version | Previous Version | Text Only | Print | Product List | Glossary Off
Versions: 1 2 3 4 5 6 7 8 9 10 11 12 13 14 15 16 17 18 19 20 21 22 23 24 25 26 27 28 29 30 31 32 33 34 35 36 37 38 39 40 41 42 43 44 45 46 47 48 49 50

000
ASUS43 KDTX 281901
RWRMI
MICHIGAN HOURLY REGIONAL WEATHER ROUNDUP
NATIONAL WEATHER SERVICE DETROIT/PONTIAC MI
300 PM EDT FRI APR 28 2017

NOTE: "FAIR" INDICATES FEW OR NO CLOUDS BELOW 12,000 FEET WITH NO
SIGNIFICANT WEATHER AND/OR OBSTRUCTION TO VISIBILITY.

MIZ047>049-052>055-059>063-066>070-074>076-081>083-282000-
SOUTHEAST LOWER MICHIGAN

CITY           SKY/WX    TMP DP  RH WIND       PRES   REMARKS
ADRIAN         MOSUNNY   59  42  53 S14       30.00S
ALMA           PTSUNNY   60  42  51 SW13G24   29.96S
ANN ARBOR      MOSUNNY   63  43  48 S13G22    29.99R
BAD AXE        SUNNY     62  39  43 SW15      29.92S
CARO           MOSUNNY   64  43  46 SW21G28   29.94R
DETROIT CITY   MOSUNNY   60  43  53 S18G24    29.99S
DETROIT        CLOUDY    63  43  48 S16       30.01R
FLINT          PTSUNNY   64  43  46 SW16G28   29.95R
GROSSE ILE     CLOUDY    57  47  67 S9        30.01R
HILLSDALE      PTSUNNY   59  43  55 S12       29.99S
HOWELL         CLOUDY    63  41  44 S10       29.97R

CITY           SKY/WX    TMP DP  RH WIND       PRES   REMARKS
JACKSON        PTSUNNY   60  41  49 S16       29.98R
LAMBERTVILLE   CLOUDY    59  42  52 S8        30.00S
LANSING        CLOUDY    64  41  42 SW20      29.96S
LAPEER         CLOUDY    66  40  38 SW15G23   29.95R
MASON          CLOUDY    63  44  50 SW7       29.96S
MONROE         CLOUDY    61  42  49 SW12      30.00R
MT. CLEMENS    PTSUNNY   62  46  56 S20G26    29.97R
PONTIAC        PTSUNNY   62  40  44 S16G26    29.96R
PORT HOPE        N/A     61  40  45 SW9G20    29.90S
PORT HURON     PTSUNNY   61  41  48 S14G23    29.98R
TRI CITIES     MOSUNNY   61  42  49 SW24G33   29.95R
MIDLAND        FAIR      63  39  41 SW21      29.93R
TROY           SUNNY     65  38  36 SW14G20   30.00R
SAGINAW HB     PTSUNNY   61  39  44 SW20G25   29.94R
$$
MIZ043>046-050>051-056>058-064>065-071>073-077>080-282000-
SOUTHWEST LOWER MICHIGAN

CITY           SKY/WX    TMP DP  RH WIND       PRES   REMARKS
BATTLE CREEK   CLOUDY    60  43  53 SW13      29.98R
BENTON HARBOR  CLOUDY    56  44  64 CALM      29.95F
BIG RAPIDS     MOSUNNY   56  33  41 SW17G30   29.94R
COLDWATER      CLOUDY    60  42  51 S6        29.98F
FREMONT        PTSUNNY   53  37  53 SW12G17   29.97R
HOLLAND        CLOUDY    55  44  66 W9        29.98S
GRAND RAPIDS   CLOUDY    60  46  59 SW13      29.96S
KALAMAZOO      CLOUDY    59  42  53 S12       29.98R
LUDINGTON      MOSUNNY   44  34  70 SW13      29.97R
MARSHALL       CLOUDY    60  41  49 S8        29.97S
MOUNT PLEASANT MOSUNNY   60  39  46 W21G26    29.94R
MUSKEGON       CLOUDY    49  37  63 SW8       29.99R
SOUTH HAVEN    CLOUDY    53  44  71 NW3       29.97R
$$
MIZ016>042-282000-
NORTHERN LOWER MICHIGAN

CITY           SKY/WX    TMP DP  RH WIND       PRES   REMARKS
ALPENA         SUNNY     59  35  40 NW8       29.88F
BEAVER ISLAND  CLOUDY    41  31  67 W16G23    29.93S
BELLAIRE       SUNNY     46  32  58 W8G18     29.95R
CADILLAC       SUNNY     57  32  38 W15G24    29.90R
CHARLEVOIX     CLOUDY    40  32  71 W20G25    29.97R WCI  31
FRANKFORT      CLOUDY    43  33  66 SW7       29.97R
GAYLORD        MOSUNNY   50  32  50 W15G23    29.89R
GRAYLING       SUNNY     57  33  40 W14G21    29.89R
HARBOR SPRINGS CLOUDY    38  32  77 W10       29.94R WCI  31
HOUGHTON LAKE  SUNNY     58  33  39 SW14G24   29.90R
MANISTEE       SUNNY     44  33  65 W16       29.97R
OSCODA         SUNNY     63  31  29 W15G24    29.87R
PELLSTON       CLOUDY    40  28  62 W14G26    29.94R WCI  32
ROGERS CITY    MOSUNNY   49  35  58 W12G17    29.91S
TRAVERSE CITY  PTSUNNY   49  34  56 W14G21    29.92R
$$
MIZ007>008-015-282000-
EASTERN UPPER MICHIGAN

CITY           SKY/WX    TMP DP  RH WIND       PRES   REMARKS
KINROSS        CLOUDY    38  26  62 W20G29    29.91R WCI  28
MACKINAC ISLAN CLOUDY    37  30  75 SW14G23   29.93R WCI  29
NEWBERRY       CLOUDY    38  28  65 SW13G22   29.88R WCI  31
S. S. MARIE    CLOUDY    41  26  55 SW12G24   29.89R
MUNISING         N/A     41  26  55 W9G23     29.88R
$$
MIZ004>006-011>014-085-282000-
CENTRAL UPPER MICHIGAN

CITY           SKY/WX    TMP DP  RH WIND       PRES   REMARKS
MANISTIQUE     CLOUDY    39  29  66 SW8G18    29.90R WCI  34
ESCANABA       CLOUDY    43  28  55 W16       29.91R
MENOMINEE      CLOUDY    46  28  49 W8G16     29.92R
SAWYER-GWINN   PTSUNNY   37  27  65 W17G25    29.87R WCI  28
$$
MIZ001>003-009>011-084-282000-
WESTERN UPPER MICHIGAN

CITY           SKY/WX    TMP DP  RH WIND       PRES   REMARKS
IRON MOUNTAIN  CLOUDY    40  27  59 W13G22    29.88S WCI  32
HOUGHTON       MIX PCPN  33  23  66 W22G30    29.84R WCI  21
COPPER HARBOR    N/A     34  27  75 W13G21    29.84R WCI  25
IRONWOOD       CLOUDY    36  28  73 W15       29.90S WCI  27
$$

ABBREVIATIONS USED IN REMARKS
   TC - TEMPERATURE IN CELSIUS
  WCI - WIND CHILL INDEX
   HX - HEAT INDEX
  VSB - VISIBILITY





USA.gov is the U.S. government's official web portal to all federal, state and local government web resources and services.